Wichita, KS

4:02 AM CDT on April 25, 2018 (GMT -0500)
Wichita Eisenhower National Airport

Weather History for KICT - June, 2013

Change the Weather History Date:

Wednesday, June 5, 2013

  Actual Average Record
Temperature  
Mean Temperature 69 °F 72 °F  
Max Temperature 75 °F 83 °F 109 °F (1933)
Min Temperature 63 °F 62 °F 48 °F (1919)
Degree Days  
Heating Degree Days 0 0  
Month to date heating degree days 3 3  
Since 1 June heating degree days 3 3  
Since 1 July heating degree days 4477 4591  
Cooling Degree Days 4 8  
Month to date cooling degree days 17 37  
Year to date cooling degree days 155 173  
Since 1 June cooling degree days 17 37  
Growing Degree Days 20 (Base 50)    
Moisture  
Dew Point 64 °F    
Average Humidity 84    
Maximum Humidity 100    
Minimum Humidity 68    
Precipitation  
Precipitation 0.45 in 0.18 in 4.76 in (1916)
Month to date precipitation 0.45 0.90  
Year to date precipitation 14.47 12.76  
Snow  
Snow 0.00 in 0.00 in 0.00 in (2007)
Month to date snowfall 0.0 0.0  
Since 1 June snowfall 0.0 0.0  
Since 1 July snowfall 30.0 14.9  
Snow Depth 0.00 in    
Sea Level Pressure  
Sea Level Pressure 29.94 in    
Wind  
Wind Speed 11 mph (North)    
Max Wind Speed 25 mph    
Max Gust Speed 35 mph    
Visibility 10 miles    
Events Rain , Thunderstorm    
T = Trace of Precipitation, MM = Missing Value Source: NWS Daily Summary

Daily Weather History Graph

Daily Weather History Graph

Search for Another Location

Airport or City:

Astronomy

Jun. 05, 2013 Rise Set
Actual Time 6:08 AM CDT 8:48 PM CDT
Civil Twilight 5:37 AM CDT 9:19 PM CDT
Nautical Twilight 4:59 AM CDT 9:57 PM CDT
Astronomical Twilight 4:16 AM CDT 10:41 PM CDT
Moon 4:10 AM CDT (6/5) 6:18 PM CDT (6/5)
Length of Visible Light 15h 41m
Length of Day
14h 39m
Waning Crescent, 8% of the Moon is Illuminated
Jun 5
Waning Crescent
Jun 8
New
Jun 16
First Quarter
Jun 23
Full
Jun 29
Last Quarter

Hourly Weather History & Observations

Time (CDT) Temp. Dew Point Humidity Pressure Visibility Wind Dir Wind Speed Gust Speed Precip Events Conditions
12:53 AM 71.1 °F 66.9 °F 87% 29.90 in 10.0 mi SE 9.2 mph - N/A   Overcast
1:53 AM 71.1 °F 66.9 °F 87% 29.89 in 10.0 mi ESE 6.9 mph - N/A   Overcast
2:53 AM 70.0 °F 66.9 °F 90% 29.86 in 10.0 mi ESE 9.2 mph - N/A Thunderstorm Thunderstorm
3:53 AM 70.0 °F 68.0 °F 93% 29.88 in 9.0 mi NW 6.9 mph - 0.01 in Rain , Thunderstorm Thunderstorms and Rain
4:10 AM 71.6 °F 68.0 °F 88% 29.94 in 6.0 mi Variable 3.5 mph - 0.05 in Rain , Thunderstorm Thunderstorms and Rain
4:53 AM 66.9 °F 66.0 °F 97% 29.86 in 9.0 mi ENE 11.5 mph - 0.32 in Rain , Thunderstorm Light Thunderstorms and Rain
5:53 AM 66.9 °F 64.9 °F 93% 29.88 in 10.0 mi WNW 21.9 mph 27.6 mph 0.11 in Rain Light Rain
6:53 AM 66.9 °F 66.0 °F 97% 29.86 in 10.0 mi North 10.4 mph 17.3 mph 0.01 in   Overcast
7:21 AM 66.2 °F 64.4 °F 94% 29.93 in 10.0 mi North 8.1 mph - N/A   Overcast
7:48 AM 66.2 °F 66.2 °F 100% 29.94 in 10.0 mi NE 8.1 mph - 0.00 in   Overcast
7:53 AM 66.9 °F 66.0 °F 97% 29.91 in 10.0 mi Variable 6.9 mph - N/A   Overcast
8:53 AM 69.1 °F 64.9 °F 87% 29.92 in 10.0 mi NNE 4.6 mph - N/A   Overcast
9:53 AM 72.0 °F 64.9 °F 78% 29.91 in 10.0 mi Variable 5.8 mph - N/A   Overcast
10:32 AM 71.6 °F 66.2 °F 83% 29.92 in 10.0 mi NE 18.4 mph - N/A   Overcast
10:53 AM 72.0 °F 64.9 °F 78% 29.89 in 10.0 mi NNE 15.0 mph 24.2 mph N/A   Mostly Cloudy
11:02 AM 71.6 °F 64.4 °F 78% 29.93 in 10.0 mi NNE 16.1 mph - N/A   Mostly Cloudy
11:36 AM 73.4 °F 64.4 °F 73% 29.96 in 10.0 mi North 12.7 mph - N/A   Mostly Cloudy
11:53 AM 75.0 °F 66.0 °F 73% 29.94 in 10.0 mi NE 10.4 mph - N/A   Overcast
12:21 PM 73.4 °F 64.4 °F 73% 29.98 in 10.0 mi North 9.2 mph - N/A   Overcast
12:53 PM 75.0 °F 66.0 °F 73% 29.95 in 10.0 mi North 9.2 mph - N/A   Overcast
1:19 PM 71.6 °F 64.4 °F 78% 29.98 in 10.0 mi North 18.4 mph - N/A   Overcast
1:27 PM 69.8 °F 64.4 °F 83% 29.98 in 10.0 mi North 13.8 mph - N/A   Overcast
1:53 PM 73.0 °F 64.9 °F 76% 29.96 in 10.0 mi North 12.7 mph - N/A   Overcast
2:09 PM 71.6 °F 64.4 °F 78% 29.99 in 10.0 mi North 13.8 mph - N/A   Overcast
2:30 PM 71.6 °F 64.4 °F 78% 29.98 in 10.0 mi North 17.3 mph - N/A   Mostly Cloudy
2:53 PM 72.0 °F 64.0 °F 76% 29.95 in 10.0 mi North 16.1 mph - N/A   Mostly Cloudy
3:23 PM 71.6 °F 64.4 °F 78% 29.98 in 10.0 mi North 11.5 mph - N/A   Mostly Cloudy
3:53 PM 71.1 °F 63.0 °F 75% 29.95 in 10.0 mi North 15.0 mph - N/A   Overcast
4:53 PM 71.1 °F 62.1 °F 73% 29.96 in 10.0 mi NNE 16.1 mph - N/A   Mostly Cloudy
5:18 PM 71.6 °F 62.6 °F 73% 29.99 in 10.0 mi North 15.0 mph - N/A   Scattered Clouds
5:53 PM 72.0 °F 62.1 °F 71% 29.95 in 10.0 mi North 16.1 mph - N/A   Scattered Clouds
6:53 PM 72.0 °F 61.0 °F 68% 29.95 in 10.0 mi North 12.7 mph - N/A   Scattered Clouds
7:53 PM 69.1 °F 59.0 °F 70% 29.95 in 10.0 mi NNE 12.7 mph - N/A   Scattered Clouds
8:53 PM 68.0 °F 59.0 °F 73% 29.96 in 10.0 mi NNE 11.5 mph - N/A   Scattered Clouds
9:53 PM 66.9 °F 59.0 °F 76% 29.99 in 10.0 mi North 6.9 mph - N/A   Scattered Clouds
10:53 PM 64.9 °F 57.9 °F 78% 29.99 in 10.0 mi North 11.5 mph - N/A   Scattered Clouds
11:53 PM 63.0 °F 55.9 °F 78% 29.99 in 10.0 mi North 10.4 mph - N/A   Mostly Cloudy